Weather History for KOFF - December, 2013

Change the Weather History Date:

Thursday, December 19, 2013

  Actual Average Record
Temperature  
Mean Temperature 29 °F -  
Max Temperature 35 °F 32 °F 46 °F (1997)
Min Temperature 21 °F 15 °F 0 °F (1996)
Degree Days  
Heating Degree Days 36    
Moisture  
Dew Point 26 °F    
Average Humidity 88    
Maximum Humidity 100    
Minimum Humidity 70    
Precipitation  
Precipitation 0.00 in - - ()
Sea Level Pressure  
Sea Level Pressure 29.83 in    
Wind  
Wind Speed 8 mph (North)    
Max Wind Speed 15 mph    
Max Gust Speed 23 mph    
Visibility 9 miles    
Events Rain    
Averages and records for this station are not official NWS values.
T = Trace of Precipitation, MM = Missing Value Source: NWS Daily Summary

Daily Weather History Graph

Daily Weather History Graph

Search for Another Location

Airport or City:

Trip Planner

Search our weather history database for the weather conditions in past years. The results will help you decide how hot, cold, wet, or windy it might be!

Date:

Astronomy

Dec. 19, 2013 Rise Set
Actual Time 7:44 AM CST 4:57 PM CST
Civil Twilight 7:13 AM CST 5:28 PM CST
Nautical Twilight 6:38 AM CST 6:03 PM CST
Astronomical Twilight 6:05 AM CST 6:36 PM CST
Moon 7:25 PM CST (12/19) 9:02 AM CST (12/19)
Length of Visible Light 10h 15m
Length of Day
9h 12m
Waning Gibbous, 95% of the Moon is Illuminated
Dec 19
Waning Gibbous
Dec 25
Last Quarter
Jan 1
New
Jan 7
First Quarter
Jan 15
Full

Hourly Weather History & Observations

Time (CST) Temp. Windchill Dew Point Humidity Pressure Visibility Wind Dir Wind Speed Gust Speed Precip Events Conditions
12:58 AM 24.6 °F - 24.3 °F 99% 29.77 in 10.0 mi Calm Calm - N/A   Scattered Clouds
1:58 AM 25.9 °F 19.2 °F 25.7 °F 99% 29.76 in 10.0 mi WNW 5.8 mph - N/A   Scattered Clouds
2:58 AM 26.6 °F - 26.2 °F 99% 29.77 in 10.0 mi Calm Calm - N/A   Scattered Clouds
3:58 AM 28.8 °F - 28.2 °F 98% 29.77 in 10.0 mi NNE 2.3 mph - N/A   Scattered Clouds
4:58 AM 30.9 °F 23.5 °F 28.8 °F 92% 29.78 in 10.0 mi NNE 8.1 mph - N/A   Scattered Clouds
5:58 AM 33.8 °F 25.8 °F 29.5 °F 84% 29.80 in 10.0 mi NNE 10.4 mph - N/A   Clear
6:58 AM 34.9 °F 27.7 °F 30.4 °F 84% 29.83 in 10.0 mi NNE 9.2 mph - N/A   Clear
7:58 AM 33.3 °F 25.1 °F 29.7 °F 87% 29.84 in 10.0 mi NNE 10.4 mph 16.1 mph N/A   Clear
8:58 AM 31.8 °F 23.3 °F 28.4 °F 87% 29.85 in 10.0 mi NNE 10.4 mph - N/A   Clear
9:58 AM 30.9 °F 20.7 °F 26.8 °F 85% 29.88 in 10.0 mi NNE 13.8 mph - N/A   Scattered Clouds
10:58 AM 31.5 °F 21.8 °F 26.6 °F 82% 29.87 in 10.0 mi NE 12.7 mph - N/A   Partly Cloudy
11:58 AM 34.0 °F 25.5 °F 26.8 °F 75% 29.83 in 10.0 mi NNE 11.5 mph - N/A   Clear
12:58 PM 35.2 °F 27.1 °F 27.0 °F 72% 29.81 in 10.0 mi NNE 11.5 mph - N/A   Clear
1:53 PM 35.6 °F 27.5 °F 26.6 °F 70% 29.75 in 10.0 mi North 11.5 mph 18.4 mph N/A   Mostly Cloudy
1:58 PM 34.9 °F 27.1 °F 26.4 °F 71% 29.78 in 10.0 mi North 10.4 mph 18.4 mph N/A   Mostly Cloudy
2:58 PM 34.0 °F 25.0 °F 26.1 °F 73% 29.79 in 10.0 mi NNE 12.7 mph 19.6 mph N/A   Overcast
3:58 PM 33.3 °F 25.1 °F 25.2 °F 72% 29.81 in 10.0 mi North 10.4 mph - N/A   Overcast
4:40 PM 32.0 °F 24.2 °F 24.8 °F 75% 29.76 in 10.0 mi North 9.2 mph - N/A   Overcast
4:58 PM 31.5 °F 22.3 °F 25.0 °F 77% 29.81 in 10.0 mi North 11.5 mph - N/A   Overcast
5:58 PM 31.1 °F 22.4 °F 25.2 °F 79% 29.82 in 10.0 mi North 10.4 mph 17.3 mph N/A   Overcast
6:28 PM 30.2 °F 19.8 °F 24.8 °F 80% 29.79 in 10.0 mi North 13.8 mph 21.9 mph N/A   Overcast
6:58 PM 29.5 °F 19.3 °F 26.1 °F 87% 29.84 in 10.0 mi North 12.7 mph 19.6 mph N/A   Overcast
7:53 PM 28.4 °F 19.1 °F 26.6 °F 93% 29.82 in 10.0 mi North 10.4 mph - N/A   Overcast
7:58 PM 28.0 °F 17.0 °F 26.6 °F 94% 29.87 in 10.0 mi North 13.8 mph 19.6 mph N/A   Overcast
8:09 PM 26.6 °F 15.2 °F 26.6 °F 100% 29.82 in 5.0 mi North 13.8 mph 20.7 mph N/A   Light Freezing Drizzle
8:31 PM 26.6 °F 16.8 °F 26.6 °F 100% 29.83 in 5.0 mi North 10.4 mph - N/A   Light Freezing Drizzle
8:58 PM 25.5 °F 13.3 °F 25.3 °F 99% 29.89 in 5.0 mi NNW 15.0 mph - 0.00 in   Light Freezing Drizzle
9:58 PM 24.1 °F 13.7 °F 23.9 °F 99% 29.91 in 5.0 mi NNW 10.4 mph - 0.00 in   Light Freezing Drizzle
10:13 PM 23.0 °F 11.7 °F 23.0 °F 100% 29.86 in 6.0 mi North 11.5 mph 19.6 mph N/A   Light Freezing Drizzle
10:24 PM 23.0 °F 11.1 °F 23.0 °F 100% 29.86 in 7.0 mi NNW 12.7 mph - N/A   Light Freezing Drizzle
10:59 PM 23.0 °F 11.7 °F 23.0 °F 100% 29.92 in 6.0 mi NW 11.5 mph - 0.00 in Rain Light Freezing Rain
11:58 PM 21.9 °F 9.8 °F 21.7 °F 99% 29.92 in 10.0 mi North 12.7 mph 23.0 mph 0.00 in   Light Freezing Drizzle